[[{"header":{"parameterUnit":"m.s-1","parameterCategory":1,"la1":30.2991,"la2":30.254,"lo1":-89.0895,"lo2":-89.0444,"dy":0.0017,"dx":0.0017,"nx":28,"ny":28,"refTime":"2025-08-22T21:00:00:Z","depth":0,"parameterNumber":2,"parameterNumberName":"U-component_of_WINDS"},"data":[0,0,0,0,0,0,0,0,0,0,0,0,0,0,0,0,0,0,0,0,0,0,0,0,0,0,0,0,0,0,0,0,0,0,0,0,0,0,0,0,0,0,0,0,0,0,0,0,0,0,0,0,0,0,0,0,0,0,-0.6261,-0.6262,0,-0.632,-0.632,-0.6321,-0.637,-0.637,-0.6371,-0.6371,-0.6429,-0.643,-0.6431,0,0,0,0,0,0,0,0,0,0,0,0,0,-0.6187,-0.6188,-0.6261,-0.6262,-0.6263,-0.632,-0.6321,-0.6321,-0.637,-0.637,-0.6371,-0.6372,-0.6429,-0.643,-0.6431,0,0,0,0,0,0,0,0,0,0,0,0,0,-0.623,-0.6188,-0.6261,-0.6294,-0.6297,-0.632,-0.6321,-0.6322,-0.637,-0.637,-0.6371,-0.6372,-0.6428,-0.643,-0.6431,-0.6425,0,0,-0.6436,-0.6437,0,0,0,0,0,0,0,0,-0.6227,-0.6232,-0.6288,-0.6291,-0.6295,-0.6338,-0.6316,-0.6356,-0.6369,-0.6342,-0.6371,-0.6372,-0.6398,-0.6402,-0.6411,-0.6428,-0.643,-0.6436,-0.6437,-0.6438,-0.6438,0,0,0,0,0,0,0,-0.6224,-0.623,-0.6284,-0.6289,-0.6293,-0.6304,-0.6311,-0.6323,-0.6365,-0.6344,-0.6348,-0.6355,-0.64,-0.641,-0.6413,-0.6431,-0.6436,-0.6438,-0.6438,-0.6439,-0.6444,-0.6443,0,0,0,0,0,0,-0.6217,-0.6227,-0.6282,-0.6286,-0.6263,-0.6305,-0.6313,-0.6324,-0.6365,-0.6372,-0.6354,-0.6357,-0.6407,-0.6411,-0.6415,-0.641,-0.6438,-0.6439,-0.644,-0.6445,-0.6444,-0.6443,0,0,0,0,0,0,-0.6215,-0.6221,-0.628,-0.6258,-0.6266,-0.6305,-0.6317,-0.6324,-0.6334,-0.6372,-0.6379,-0.6356,-0.6407,-0.6413,-0.6422,-0.6413,-0.644,-0.6441,-0.6446,-0.6444,-0.6443,-0.6401,0,0,0,0,0,0,-0.6213,-0.622,-0.622,-0.6257,-0.6267,-0.6287,-0.6317,-0.6325,-0.6337,-0.6341,-0.6376,-0.6383,-0.6408,-0.642,-0.6424,-0.6416,-0.6443,-0.6447,-0.6445,-0.6444,-0.6403,-0.6398,-0.6394,0,0,0,0,0,-0.621,-0.6205,-0.6219,-0.6226,-0.6267,-0.6287,-0.6292,-0.6323,-0.6336,-0.6335,-0.6359,-0.6382,-0.6413,-0.642,-0.6425,-0.6418,-0.6447,-0.6445,-0.6444,-0.6405,-0.6399,-0.6394,0,0,0,0,0,0,-0.6165,-0.6211,-0.6227,-0.6235,-0.6256,-0.6295,-0.6295,-0.6315,-0.6333,-0.6337,-0.6372,-0.638,-0.6385,-0.6402,-0.6409,-0.6413,-0.6433,-0.6432,-0.6402,-0.6397,-0.6392,-0.6389,-0.6444,0,0,0,0,0,-0.6156,-0.6169,-0.6208,-0.6211,-0.6221,-0.6256,-0.6265,-0.6287,-0.631,-0.632,-0.6344,-0.6365,-0.638,-0.6389,-0.6405,-0.6405,-0.6413,-0.6402,-0.6397,-0.6393,-0.6393,-0.6393,-0.6389,-0.6437,-0.6437,-0.6437,0,0,-0.6138,-0.6164,-0.6171,-0.6203,-0.6222,-0.6233,-0.6263,-0.6275,-0.6283,-0.6321,-0.6332,-0.635,-0.6376,-0.638,-0.6383,-0.6395,-0.6381,-0.6391,-0.6388,-0.6389,-0.6391,-0.6386,-0.6382,-0.6435,-0.6436,-0.6436,0,0,-0.6111,-0.6133,-0.6137,-0.6155,-0.6184,-0.6207,-0.6207,-0.6242,-0.6256,-0.6267,-0.6295,-0.6305,-0.633,-0.6347,-0.6358,-0.6334,-0.6356,-0.6338,-0.6315,-0.6315,-0.6311,-0.6308,-0.6299,-0.6296,-0.6337,-0.6337,-0.6337,0,-0.6085,-0.6105,-0.6137,-0.6146,-0.6158,-0.6193,-0.6197,-0.6213,-0.6245,-0.6252,-0.6264,-0.6294,-0.6314,-0.6323,-0.6316,-0.6325,-0.6326,-0.6335,-0.6309,-0.6306,-0.6304,-0.6296,-0.6292,-0.6334,-0.6335,-0.6335,-0.6335,0,-0.6071,-0.6083,-0.6083,-0.6114,-0.6126,-0.6132,-0.6164,-0.6172,-0.6191,-0.6211,-0.6221,-0.6245,-0.6266,-0.6269,-0.6288,-0.628,-0.6286,-0.6302,-0.6324,-0.6296,-0.6289,-0.6287,-0.6331,-0.6332,-0.6333,-0.6333,0,0,-0.6021,-0.6066,-0.6066,-0.6079,-0.6112,-0.6122,-0.6128,-0.6149,-0.6155,-0.6174,-0.6181,-0.6199,-0.6215,-0.6228,-0.6248,-0.6248,-0.6227,-0.6265,-0.6266,-0.6257,-0.6218,-0.6206,-0.6202,-0.624,-0.624,-0.6239,-0.6216,0,-0.5999,-0.6015,-0.6042,-0.6049,-0.606,-0.6091,-0.6097,-0.6117,-0.6135,-0.6146,-0.6167,-0.6179,-0.6199,-0.6207,-0.6208,-0.6229,-0.622,-0.6231,-0.6246,-0.6246,-0.624,-0.6199,-0.6187,-0.6164,-0.6214,-0.6213,-0.6213,0,-0.5978,-0.5996,-0.6003,-0.6033,-0.6039,-0.6044,-0.6064,-0.6074,-0.6096,-0.611,-0.6123,-0.6145,-0.6152,-0.617,-0.618,-0.6187,-0.6194,-0.6205,-0.6205,-0.6209,-0.6229,-0.6202,-0.6157,-0.6154,-0.6209,-0.6209,-0.621,0,-0.5941,-0.5966,-0.5974,-0.5984,-0.602,-0.6022,-0.6037,-0.606,-0.6069,-0.6086,-0.6092,-0.6109,-0.6118,-0.613,-0.6155,-0.6166,-0.6162,-0.6182,-0.6173,-0.6172,-0.6172,-0.6172,-0.6129,-0.6174,-0.6174,-0.6175,-0.6175,0,-0.5915,-0.5919,-0.5958,-0.5963,-0.5966,-0.5996,-0.5999,-0.6016,-0.6036,-0.6043,-0.607,-0.6076,-0.6109,-0.6118,-0.6138,-0.6142,-0.6146,-0.6157,-0.6162,-0.6155,-0.6154,-0.6161,-0.6164,-0.6174,-0.6174,-0.6174,-0.6174,0,-0.5876,-0.5902,-0.5912,-0.5944,-0.5952,-0.5953,-0.598,-0.5985,-0.6004,-0.6013,-0.6017,-0.6046,-0.6059,-0.6085,-0.6104,-0.6117,-0.6117,-0.6126,-0.611,-0.6113,-0.6103,-0.6104,-0.6064,-0.606,-0.6107,-0.6106,-0.6106,0,-0.5859,-0.5862,-0.5893,-0.59,-0.5914,-0.5925,-0.5935,-0.5963,-0.5972,-0.5996,-0.5998,-0.6012,-0.6025,-0.6043,-0.6066,-0.608,-0.609,-0.6075,-0.6093,-0.6085,-0.6091,-0.6091,-0.6091,-0.6072,-0.6071,-0.6071,-0.607,0,-0.5825,-0.5837,-0.5851,-0.5868,-0.5879,-0.5894,-0.591,-0.5914,-0.5946,-0.5954,-0.5967,-0.5977,-0.5996,-0.601,-0.6027,-0.6041,-0.606,-0.6064,-0.6063,-0.6056,-0.6047,-0.6052,-0.61,-0.6065,-0.6066,-0.6066,-0.6066,-0.6067,-0.5797,-0.5801,-0.5823,-0.5837,-0.5851,-0.5865,-0.5871,-0.589,-0.5902,-0.592,-0.5935,-0.5947,-0.5966,-0.5991,-0.6003,-0.6012,-0.6022,-0.602,-0.6019,-0.6019,-0.6016,-0.6044,-0.6015,-0.6015,-0.6015,-0.6015,-0.6015,0,-0.5765,-0.5781,-0.5792,-0.5814,-0.5824,-0.5841,-0.5859,-0.5866,-0.5876,-0.5893,-0.5905,-0.5918,-0.5931,-0.5954,-0.5968,-0.597,-0.5979,-0.5973,-0.5974,-0.5976,-0.6006,-0.6006,-0.5965,-0.5965,-0.5965,-0.5965,-0.5965,-0.5965,-0.575,-0.5757,-0.5771,-0.5785,-0.58,-0.5812,-0.5821,-0.5833,-0.5847,-0.5861,-0.5872,-0.5886,-0.5905,-0.592,-0.5932,-0.5938,-0.5942,-0.5933,-0.5942,-0.597,-0.5975,-0.5979,-0.5979,-0.5934,-0.5933,-0.5912,-0.5912,-0.5912]},{"header":{"parameterUnit":"m.s-1","parameterCategory":1,"la1":30.2991,"la2":30.254,"lo1":-89.0895,"lo2":-89.0444,"dy":0.0017,"dx":0.0017,"nx":28,"ny":28,"refTime":"2025-08-22T21:00:00:Z","depth":0,"parameterNumber":3,"parameterNumberName":"V-component_of_WINDS"},"data":[0,0,0,0,0,0,0,0,0,0,0,0,0,0,0,0,0,0,0,0,0,0,0,0,0,0,0,0,0,0,0,0,0,0,0,0,0,0,0,0,0,0,0,0,0,0,0,0,0,0,0,0,0,0,0,0,0,0,-0.4231,-0.423,0,-0.4158,-0.4157,-0.4156,-0.4145,-0.4145,-0.4146,-0.4147,-0.4073,-0.407,-0.4068,0,0,0,0,0,0,0,0,0,0,0,0,0,-0.4361,-0.4359,-0.4231,-0.423,-0.4229,-0.4158,-0.4157,-0.4156,-0.4145,-0.4145,-0.4146,-0.4147,-0.4074,-0.4071,-0.4067,0,0,0,0,0,0,0,0,0,0,0,0,0,-0.4298,-0.4358,-0.4231,-0.4215,-0.4213,-0.4158,-0.4157,-0.4156,-0.4145,-0.4145,-0.4146,-0.4147,-0.4075,-0.4071,-0.4067,-0.4024,0,0,-0.4055,-0.4054,0,0,0,0,0,0,0,0,-0.4302,-0.4294,-0.4218,-0.4216,-0.4213,-0.4162,-0.4176,-0.4112,-0.4144,-0.417,-0.4147,-0.4148,-0.4102,-0.4096,-0.408,-0.4021,-0.4018,-0.4055,-0.4053,-0.4051,-0.405,0,0,0,0,0,0,0,-0.4306,-0.4297,-0.4202,-0.4217,-0.4214,-0.4212,-0.4204,-0.4164,-0.4132,-0.4168,-0.4167,-0.4159,-0.41,-0.4084,-0.4078,-0.4016,-0.4055,-0.4052,-0.4049,-0.4048,-0.3919,-0.3918,0,0,0,0,0,0,-0.4314,-0.43,-0.4205,-0.42,-0.4261,-0.4208,-0.42,-0.4177,-0.4132,-0.4126,-0.4158,-0.4158,-0.409,-0.4082,-0.4075,-0.4022,-0.4051,-0.4047,-0.4045,-0.392,-0.3919,-0.3918,0,0,0,0,0,0,-0.4316,-0.4305,-0.4208,-0.425,-0.4237,-0.4205,-0.418,-0.4175,-0.4158,-0.4124,-0.4118,-0.4146,-0.409,-0.4081,-0.4037,-0.4019,-0.4046,-0.4042,-0.3921,-0.392,-0.3918,-0.3915,0,0,0,0,0,0,-0.432,-0.4306,-0.4289,-0.425,-0.4235,-0.417,-0.4179,-0.4173,-0.4152,-0.4152,-0.4112,-0.4106,-0.409,-0.4043,-0.4033,-0.4014,-0.4039,-0.3923,-0.3921,-0.3919,-0.3917,-0.3914,-0.3911,0,0,0,0,0,-0.4325,-0.4291,-0.4288,-0.4277,-0.4213,-0.4169,-0.4161,-0.4142,-0.415,-0.4133,-0.4111,-0.4108,-0.4023,-0.4038,-0.4027,-0.4007,-0.3924,-0.3921,-0.3919,-0.3918,-0.3914,-0.3911,0,0,0,0,0,0,-0.433,-0.4286,-0.4282,-0.4235,-0.4206,-0.4167,-0.4145,-0.4139,-0.4107,-0.4109,-0.4088,-0.4079,-0.4036,-0.4018,-0.4035,-0.3964,-0.3974,-0.3969,-0.3977,-0.3973,-0.3971,-0.3976,-0.4036,0,0,0,0,0,-0.4325,-0.4293,-0.4256,-0.4218,-0.4204,-0.4177,-0.4157,-0.4146,-0.4115,-0.4102,-0.4077,-0.4048,-0.4015,-0.3993,-0.3961,-0.3914,-0.3906,-0.3895,-0.3892,-0.389,-0.3886,-0.386,-0.3855,-0.3909,-0.3909,-0.3909,0,0,-0.4316,-0.4288,-0.4268,-0.4218,-0.4195,-0.4162,-0.4167,-0.4131,-0.4107,-0.4097,-0.4054,-0.4035,-0.4001,-0.3955,-0.3934,-0.3938,-0.387,-0.3887,-0.3886,-0.3882,-0.3857,-0.3852,-0.3848,-0.3908,-0.3908,-0.3908,0,0,-0.4281,-0.4257,-0.4222,-0.4198,-0.4162,-0.4145,-0.4137,-0.4099,-0.4086,-0.4042,-0.4034,-0.4005,-0.3948,-0.3924,-0.3905,-0.3862,-0.3858,-0.3853,-0.3837,-0.3812,-0.3808,-0.3804,-0.3789,-0.3784,-0.3849,-0.3849,-0.3849,0,-0.4274,-0.4223,-0.4205,-0.417,-0.4149,-0.4139,-0.4104,-0.4082,-0.4037,-0.4022,-0.4028,-0.3957,-0.3933,-0.3882,-0.3872,-0.3856,-0.3846,-0.3856,-0.381,-0.3806,-0.3802,-0.3788,-0.3782,-0.3848,-0.3848,-0.3848,-0.3848,0,-0.4216,-0.4181,-0.4158,-0.4115,-0.4091,-0.4056,-0.4033,-0.4011,-0.4002,-0.3984,-0.394,-0.3912,-0.3873,-0.3861,-0.3852,-0.3809,-0.3812,-0.3814,-0.3824,-0.3797,-0.3783,-0.3777,-0.3848,-0.3848,-0.3848,-0.3848,0,0,-0.4181,-0.4129,-0.4121,-0.4101,-0.4061,-0.4034,-0.4,-0.3962,-0.3943,-0.3913,-0.3884,-0.3836,-0.3838,-0.3816,-0.3804,-0.3783,-0.3751,-0.3787,-0.3786,-0.3781,-0.3702,-0.37,-0.3694,-0.3748,-0.3747,-0.3746,-0.3705,0,-0.4141,-0.4078,-0.4062,-0.4008,-0.3976,-0.3967,-0.3937,-0.3909,-0.3892,-0.3863,-0.3844,-0.381,-0.3815,-0.3802,-0.378,-0.3759,-0.3735,-0.3762,-0.372,-0.3719,-0.3728,-0.3686,-0.3684,-0.3646,-0.3699,-0.3698,-0.3697,0,-0.4086,-0.4055,-0.3998,-0.3963,-0.3949,-0.3922,-0.3887,-0.3859,-0.3828,-0.3817,-0.3792,-0.3783,-0.3747,-0.376,-0.371,-0.3729,-0.3711,-0.3699,-0.3697,-0.3692,-0.3706,-0.368,-0.3634,-0.3628,-0.3688,-0.3689,-0.369,0,-0.4066,-0.401,-0.3969,-0.3952,-0.391,-0.3892,-0.3873,-0.3843,-0.3822,-0.3791,-0.3777,-0.3743,-0.3724,-0.3698,-0.368,-0.3691,-0.3632,-0.3643,-0.3622,-0.3622,-0.3609,-0.361,-0.3559,-0.3599,-0.3599,-0.3599,-0.3599,0,-0.4022,-0.3988,-0.3959,-0.3934,-0.3895,-0.3877,-0.384,-0.3821,-0.3795,-0.3766,-0.3756,-0.373,-0.3708,-0.3678,-0.3664,-0.3625,-0.3617,-0.3607,-0.3604,-0.3608,-0.3609,-0.3595,-0.3597,-0.3597,-0.3598,-0.3598,-0.3598,0,-0.3993,-0.3972,-0.3926,-0.389,-0.3881,-0.3854,-0.3823,-0.3799,-0.3782,-0.3746,-0.3736,-0.3709,-0.3675,-0.3654,-0.361,-0.3601,-0.3558,-0.3556,-0.3568,-0.3566,-0.3546,-0.3548,-0.3484,-0.3475,-0.3521,-0.3521,-0.352,0,-0.3966,-0.3939,-0.3901,-0.3881,-0.3862,-0.383,-0.3809,-0.379,-0.3768,-0.3731,-0.3711,-0.3676,-0.3646,-0.3591,-0.3568,-0.3534,-0.3531,-0.3511,-0.3526,-0.3531,-0.353,-0.3532,-0.3529,-0.3508,-0.3508,-0.3507,-0.3507,0,-0.3921,-0.3912,-0.3881,-0.3846,-0.3821,-0.3793,-0.3765,-0.375,-0.3726,-0.3702,-0.3666,-0.3643,-0.3599,-0.3564,-0.3529,-0.351,-0.3505,-0.3503,-0.3496,-0.3499,-0.3508,-0.3503,-0.356,-0.3504,-0.3505,-0.3505,-0.3505,-0.3505,-0.3891,-0.3867,-0.3837,-0.3803,-0.378,-0.3754,-0.373,-0.371,-0.3679,-0.3641,-0.3632,-0.3595,-0.3565,-0.3518,-0.3499,-0.3469,-0.3473,-0.3463,-0.346,-0.3458,-0.3457,-0.3513,-0.3463,-0.3463,-0.3463,-0.3463,-0.3463,0,-0.3845,-0.3825,-0.3794,-0.3756,-0.3729,-0.3727,-0.3696,-0.3674,-0.3641,-0.3614,-0.3585,-0.3545,-0.3511,-0.3486,-0.3451,-0.3433,-0.343,-0.3424,-0.3425,-0.3421,-0.3456,-0.3465,-0.3428,-0.3428,-0.3428,-0.3428,-0.3428,-0.3428,-0.3818,-0.3777,-0.3765,-0.3714,-0.3694,-0.3657,-0.364,-0.3616,-0.3595,-0.355,-0.3521,-0.3505,-0.3479,-0.3443,-0.3412,-0.3406,-0.3394,-0.3389,-0.3382,-0.3415,-0.3419,-0.3422,-0.3431,-0.3386,-0.3386,-0.3349,-0.3349,-0.3349]}]]